Вернуться в каталог

STARLINK-5559

АктивенСвязьSSO
NORAD 56335·PAYLOAD·🇺🇸 United States

Запущен Apr 27, 2023 с Vandenberg Space Force Base

Loading…

Ближайшие Пролёты (ближайшие 24 часа)

TLE

СвежийSource: CelesTrak SupGP

Эпоха: Sep 15, 2026, 02:20 UTC

1 56335C 23058U   26258.09770833 -.00058269  00000+0 -18091-2 0  2580
2 56335  97.2848 254.9408 0001570  86.9846  65.1039 15.33463715    11

Отслеживайте STARLINK-5559 в реальном времени с AllMySat

Download on the App Store